| time (UTC) | temp F | wind direction | speed knots | gust knots | rain 1hr in | rain 24hr in | rain mn in | humidity % | barometer mb |
| 20260507110856 | 36 | 217 | 0.0 | 0.0 | 0.00 | 0.00 | 0.00 | 99 | 1014.0 |
| 20260507110352 | 35 | 211 | 0.0 | 0.0 | 0.00 | 0.00 | 0.00 | 99 | 1013.4 |
| 20260507105849 | 35 | 199 | 0.0 | 0.0 | 0.00 | 0.00 | 0.00 | 99 | 1013.4 |
| 20260507105346 | 35 | 203 | 5.2 | 6.1 | 0.00 | 0.00 | 0.00 | 99 | 1013.3 |
| 20260507104843 | 35 | 200 | 0.0 | 0.0 | 0.00 | 0.00 | 0.00 | 99 | 1013.5 |
| 20260507104339 | 35 | 198 | 1.7 | 1.7 | 0.00 | 0.00 | 0.00 | 99 | 1013.6 |
| 20260507103835 | 36 | 144 | 3.5 | 4.3 | 0.00 | 0.00 | 0.00 | 99 | 1013.6 |
| 20260507103332 | 36 | 192 | 3.5 | 4.3 | 0.00 | 0.00 | 0.00 | 99 | 1013.5 |
| 20260507102829 | 36 | 208 | 0.0 | 0.0 | 0.00 | 0.00 | 0.00 | 99 | 1013.7 |
| 20260507102325 | 35 | 220 | 0.0 | 0.0 | 0.00 | 0.00 | 0.00 | 99 | 1013.6 |
| 20260507101822 | 35 | 222 | 0.0 | 0.0 | 0.00 | 0.00 | 0.00 | 99 | 1013.8 |
| 20260507101316 | 35 | 223 | 0.0 | 0.0 | 0.00 | 0.00 | 0.00 | 99 | 1013.5 |
| 20260507100813 | 35 | 223 | 0.0 | 0.0 | 0.00 | 0.00 | 0.00 | 99 | 1013.9 |
| 20260507100311 | 35 | 219 | 0.0 | 0.0 | 0.00 | 0.00 | 0.00 | 99 | 1013.6 |
| 20260507095809 | 35 | 226 | 0.0 | 0.0 | 0.00 | 0.00 | 0.00 | 99 | 1013.7 |
| 20260507095306 | 35 | 225 | 0.0 | 0.0 | 0.00 | 0.00 | 0.00 | 99 | 1013.7 |
| 20260507094802 | 35 | 224 | 0.0 | 0.0 | 0.00 | 0.00 | 0.00 | 99 | 1013.4 |
| 20260507094259 | 36 | 222 | 0.0 | 0.0 | 0.00 | 0.00 | 0.00 | 99 | 1013.6 |
| 20260507093756 | 36 | 225 | 0.0 | 0.0 | 0.00 | 0.00 | 0.00 | 99 | 1013.5 |
| 20260507093255 | 36 | 228 | 0.0 | 0.0 | 0.00 | 0.00 | 0.00 | 99 | 1013.6 |
| 20260507092752 | 36 | 227 | 0.0 | 0.0 | 0.00 | 0.00 | 0.00 | 99 | 1013.5 |
| 20260507092248 | 36 | 224 | 0.0 | 0.0 | 0.00 | 0.00 | 0.00 | 99 | 1013.5 |
| 20260507091745 | 37 | 219 | 0.0 | 0.0 | 0.00 | 0.00 | 0.00 | 99 | 1013.6 |
| 20260507091242 | 37 | 215 | 0.0 | 0.0 | 0.00 | 0.00 | 0.00 | 99 | 1013.6 |
| 20260507090737 | 37 | 222 | 0.0 | 0.0 | 0.00 | 0.00 | 0.00 | 99 | 1013.6 |
| 20260507090234 | 37 | 223 | 0.0 | 0.0 | 0.00 | 0.00 | 0.00 | 99 | 1013.8 |
| 20260507085731 | 37 | 219 | 0.0 | 0.0 | 0.00 | 0.00 | 0.00 | 99 | 1013.4 |
| 20260507085227 | 37 | 215 | 0.0 | 0.0 | 0.00 | 0.00 | 0.00 | 99 | 1013.6 |
| 20260507084725 | 37 | 211 | 0.0 | 0.0 | 0.00 | 0.00 | 0.00 | 99 | 1013.8 |
| 20260507084221 | 38 | 224 | 0.0 | 0.0 | 0.00 | 0.00 | 0.00 | 99 | 1013.5 |
| 20260507083719 | 37 | 226 | 0.0 | 0.0 | 0.00 | 0.00 | 0.00 | 99 | 1013.6 |
| 20260507083215 | 37 | 225 | 0.0 | 0.0 | 0.00 | 0.00 | 0.00 | 99 | 1013.6 |
| 20260507082711 | 37 | 192 | 0.0 | 0.0 | 0.00 | 0.00 | 0.00 | 99 | 1013.6 |
| 20260507082207 | 37 | 212 | 0.0 | 0.0 | 0.00 | 0.00 | 0.00 | 99 | 1013.6 |
| 20260507081704 | 37 | 213 | 0.0 | 0.0 | 0.00 | 0.00 | 0.00 | 99 | 1013.8 |
| 20260507081200 | 38 | 220 | 0.0 | 0.0 | 0.00 | 0.00 | 0.00 | 99 | 1013.8 |
| 20260507080657 | 37 | 218 | 0.0 | 0.0 | 0.00 | 0.00 | 0.00 | 99 | 1013.7 |
| 20260507080153 | 38 | 223 | 0.0 | 0.0 | 0.00 | 0.00 | 0.00 | 99 | 1013.9 |
| 20260507075648 | 38 | 224 | 0.0 | 0.0 | 0.00 | 0.00 | 0.00 | 99 | 1013.5 |
| 20260507075145 | 38 | 226 | 0.0 | 0.0 | 0.00 | 0.00 | 0.00 | 99 | 1013.8 |
| 20260507074641 | 38 | 220 | 0.0 | 0.0 | 0.00 | 0.00 | 0.00 | 99 | 1013.5 |
| 20260507074140 | 39 | 220 | 0.0 | 0.0 | 0.00 | 0.00 | 0.00 | 98 | 1013.9 |
| 20260507073636 | 39 | 214 | 0.0 | 0.0 | 0.00 | 0.00 | 0.00 | 98 | 1013.5 |
| 20260507073132 | 39 | 202 | 0.0 | 0.0 | 0.00 | 0.00 | 0.00 | 98 | 1013.6 |
| 20260507072630 | 40 | 220 | 0.0 | 0.0 | 0.00 | 0.00 | 0.00 | 98 | 1013.8 |
| 20260507072127 | 40 | 219 | 0.0 | 0.0 | 0.00 | 0.00 | 0.00 | 98 | 1013.6 |
| 20260507071625 | 41 | 212 | 0.0 | 0.0 | 0.00 | 0.00 | 0.00 | 98 | 1013.4 |
| 20260507071121 | 41 | 214 | 0.0 | 0.0 | 0.00 | 0.00 | 0.00 | 98 | 1013.9 |
| 20260507070618 | 41 | 214 | 0.0 | 0.0 | 0.00 | 0.00 | 0.00 | 98 | 1013.7 |
| 20260507070115 | 41 | 221 | 0.0 | 0.0 | 0.00 | 0.00 | 0.00 | 98 | 1013.8 |
| 20260507065611 | 41 | 213 | 0.0 | 0.0 | 0.00 | 0.00 | 0.00 | 98 | 1013.8 |
| 20260507065108 | 41 | 216 | 0.0 | 0.0 | 0.00 | 0.00 | 0.00 | 97 | 1013.7 |
| 20260507064606 | 41 | 212 | 0.0 | 0.0 | 0.00 | 0.00 | 0.00 | 97 | 1013.8 |
| 20260507064104 | 41 | 224 | 0.0 | 0.0 | 0.00 | 0.00 | 0.00 | 97 | 1013.6 |
| 20260507063601 | 42 | 222 | 0.0 | 0.0 | 0.00 | 0.00 | 0.00 | 97 | 1013.6 |
| 20260507063059 | 42 | 208 | 0.0 | 0.0 | 0.00 | 0.00 | 0.00 | 97 | 1013.7 |
| 20260507062555 | 42 | 211 | 0.0 | 0.0 | 0.00 | 0.00 | 0.00 | 97 | 1013.7 |
| 20260507062053 | 42 | 208 | 0.0 | 0.0 | 0.00 | 0.00 | 0.00 | 96 | 1013.7 |
| 20260507061550 | 42 | 218 | 0.0 | 0.0 | 0.00 | 0.00 | 0.00 | 96 | 1014.1 |
| 20260507061048 | 42 | 220 | 0.0 | 0.0 | 0.00 | 0.00 | 0.00 | 95 | 1013.9 |
| 20260507060546 | 42 | 220 | 0.0 | 0.0 | 0.00 | 0.00 | 0.00 | 95 | 1013.8 |
| 20260507060042 | 42 | 220 | 0.0 | 0.0 | 0.00 | 0.00 | 0.00 | 95 | 1013.9 |
| 20260507055537 | 42 | 220 | 0.0 | 0.0 | 0.00 | 0.00 | 0.00 | 95 | 1014.0 |
| 20260507055034 | 42 | 201 | 0.0 | 0.0 | 0.00 | 0.00 | 0.00 | 95 | 1013.9 |
| 20260507054530 | 42 | 224 | 0.0 | 0.0 | 0.00 | 0.00 | 0.00 | 94 | 1013.8 |
| 20260507054027 | 42 | 223 | 0.0 | 0.0 | 0.00 | 0.00 | 0.00 | 94 | 1013.8 |
| 20260507053525 | 42 | 224 | 0.0 | 0.0 | 0.00 | 0.00 | 0.00 | 94 | 1013.9 |
| 20260507053023 | 42 | 227 | 0.0 | 0.0 | 0.00 | 0.00 | 0.00 | 94 | 1014.0 |
| 20260507052521 | 42 | 229 | 0.0 | 0.0 | 0.00 | 0.00 | 0.00 | 94 | 1013.8 |
| 20260507052017 | 43 | 225 | 0.0 | 0.0 | 0.00 | 0.00 | 0.00 | 93 | 1014.1 |
| 20260507051515 | 43 | 234 | 0.0 | 0.0 | 0.00 | 0.00 | 0.00 | 93 | 1014.1 |
| 20260507051012 | 43 | 229 | 0.0 | 0.0 | 0.00 | 0.00 | 0.00 | 92 | 1013.8 |
| 20260507050508 | 43 | 232 | 0.0 | 0.0 | 0.00 | 0.00 | 0.00 | 92 | 1014.1 |
| 20260507050005 | 43 | 236 | 0.0 | 0.0 | 0.00 | 0.00 | 0.00 | 92 | 1014.1 |
| 20260507045501 | 43 | 227 | 0.0 | 0.0 | 0.00 | 0.00 | 0.00 | 92 | 1014.0 |
| 20260507044959 | 43 | 228 | 0.0 | 0.0 | 0.00 | 0.00 | 0.00 | 91 | 1014.0 |
| 20260507044455 | 43 | 226 | 0.0 | 0.0 | 0.00 | 0.00 | 0.00 | 90 | 1014.1 |
| 20260507043951 | 43 | 226 | 0.0 | 0.0 | 0.00 | 0.00 | 0.00 | 90 | 1013.9 |
| 20260507043448 | 43 | 225 | 0.0 | 0.0 | 0.00 | 0.00 | 0.00 | 90 | 1014.2 |
| 20260507042944 | 43 | 233 | 0.0 | 0.0 | 0.00 | 0.00 | 0.00 | 90 | 1013.9 |
| 20260507042441 | 43 | 233 | 0.0 | 0.0 | 0.00 | 0.00 | 0.00 | 90 | 1014.1 |
| 20260507041937 | 43 | 225 | 0.0 | 0.0 | 0.00 | 0.00 | 0.00 | 89 | 1014.0 |
| 20260507041434 | 43 | 233 | 0.9 | 0.9 | 0.00 | 0.00 | 0.00 | 89 | 1013.8 |
| 20260507040931 | 43 | 225 | 0.0 | 0.0 | 0.00 | 0.00 | 0.00 | 89 | 1013.8 |
| 20260507040426 | 44 | 231 | 0.0 | 0.0 | 0.00 | 0.00 | 0.00 | 89 | 1013.8 |
| 20260507035922 | 44 | 228 | 0.0 | 0.0 | 0.00 | 0.84 | 0.84 | 88 | 1014.0 |
| 20260507035419 | 44 | 233 | 0.0 | 0.0 | 0.00 | 0.84 | 0.84 | 88 | 1014.0 |
| 20260507034916 | 44 | 243 | 0.0 | 0.0 | 0.00 | 0.84 | 0.84 | 87 | 1013.8 |
| 20260507034413 | 44 | 235 | 0.0 | 0.0 | 0.00 | 0.84 | 0.84 | 86 | 1013.7 |
| 20260507033911 | 44 | 346 | 0.0 | 0.0 | 0.00 | 0.84 | 0.84 | 86 | 1013.5 |
| 20260507033409 | 44 | 240 | 0.0 | 0.0 | 0.00 | 0.84 | 0.84 | 87 | 1013.5 |
| 20260507032905 | 44 | 278 | 2.6 | 2.6 | 0.00 | 0.84 | 0.84 | 88 | 1013.4 |
| 20260507032402 | 44 | 319 | 0.0 | 1.7 | 0.00 | 0.84 | 0.84 | 88 | 1013.4 |
| 20260507031858 | 44 | 242 | 0.0 | 0.0 | 0.00 | 0.84 | 0.84 | 88 | 1013.3 |
| 20260507031355 | 44 | 224 | 0.0 | 0.0 | 0.00 | 0.84 | 0.84 | 87 | 1013.7 |
| 20260507030852 | 44 | 222 | 0.0 | 0.0 | 0.00 | 0.84 | 0.84 | 85 | 1013.5 |
| 20260507030349 | 44 | 240 | 0.0 | 0.0 | 0.00 | 0.84 | 0.84 | 85 | 1013.5 |
| 20260507025845 | 44 | 254 | 1.7 | 1.7 | 0.00 | 0.84 | 0.84 | 84 | 1013.5 |
| 20260507025343 | 44 | 281 | 1.7 | 1.7 | 0.00 | 0.84 | 0.84 | 85 | 1013.4 |
| 20260507024841 | 44 | 254 | 0.9 | 1.7 | 0.00 | 0.84 | 0.84 | 86 | 1013.3 |
| 20260507024338 | 45 | 282 | 2.6 | 2.6 | 0.00 | 0.84 | 0.84 | 85 | 1013.5 |
| 20260507023834 | 45 | 319 | 2.6 | 4.3 | 0.00 | 0.84 | 0.84 | 85 | 1013.3 |
| 20260507023330 | 45 | 286 | 2.6 | 2.6 | 0.00 | 0.84 | 0.84 | 84 | 1013.3 |
| 20260507022828 | 45 | 304 | 1.7 | 2.6 | 0.00 | 0.84 | 0.84 | 84 | 1013.3 |
| 20260507022324 | 45 | 271 | 1.7 | 1.7 | 0.00 | 0.84 | 0.84 | 83 | 1013.3 |
| 20260507021820 | 45 | 281 | 2.6 | 2.6 | 0.00 | 0.84 | 0.84 | 83 | 1013.4 |
| 20260507021316 | 45 | 231 | 3.5 | 4.3 | 0.00 | 0.84 | 0.84 | 84 | 1013.3 |
| 20260507020814 | 45 | 251 | 1.7 | 4.3 | 0.00 | 0.84 | 0.84 | 86 | 1013.4 |
| 20260507020310 | 45 | 249 | 1.7 | 2.6 | 0.00 | 0.84 | 0.84 | 86 | 1013.4 |
| 20260507015808 | 46 | 279 | 2.6 | 2.6 | 0.00 | 0.84 | 0.84 | 86 | 1013.6 |
| 20260507015306 | 46 | 266 | 1.7 | 1.7 | 0.00 | 0.84 | 0.84 | 85 | 1013.4 |
| 20260507014802 | 46 | 262 | 1.7 | 1.7 | 0.00 | 0.84 | 0.84 | 85 | 1013.2 |
| 20260507014258 | 46 | 244 | 1.7 | 1.7 | 0.00 | 0.84 | 0.84 | 84 | 1013.5 |
| 20260507013755 | 46 | 286 | 1.7 | 1.7 | 0.00 | 0.84 | 0.84 | 84 | 1013.3 |
| 20260507013252 | 46 | 284 | 2.6 | 2.6 | 0.00 | 0.84 | 0.84 | 84 | 1013.5 |
| 20260507012749 | 46 | 293 | 2.6 | 2.6 | 0.00 | 0.84 | 0.84 | 84 | 1013.8 |
| 20260507012245 | 46 | 313 | 3.5 | 4.3 | 0.00 | 0.84 | 0.84 | 85 | 1013.7 |
| 20260507011743 | 47 | 324 | 3.5 | 4.3 | 0.00 | 0.84 | 0.84 | 85 | 1013.7 |
| 20260507011239 | 47 | 297 | 4.3 | 5.2 | 0.00 | 0.84 | 0.84 | 86 | 1013.2 |
| 20260507010738 | 47 | 339 | 6.1 | 7.0 | 0.00 | 0.84 | 0.84 | 86 | 1013.3 |
| 20260507010235 | 47 | 297 | 6.1 | 8.7 | 0.00 | 0.84 | 0.84 | 89 | 1013.3 |
| 20260507005733 | 47 | 313 | 10.4 | 12.2 | 0.00 | 0.84 | 0.84 | 92 | 1013.5 |
| 20260507005229 | 47 | 281 | 3.5 | 4.3 | 0.00 | 0.84 | 0.84 | 95 | 1013.1 |
| 20260507004725 | 47 | 247 | 3.5 | 5.2 | 0.00 | 0.84 | 0.84 | 96 | 1013.1 |
| 20260507004223 | 47 | 338 | 3.5 | 4.3 | 0.00 | 0.84 | 0.84 | 97 | 1012.6 |
| 20260507003719 | 47 | 257 | 2.6 | 4.3 | 0.00 | 0.84 | 0.84 | 98 | 1013.2 |
| 20260507003214 | 47 | 245 | 2.6 | 2.6 | 0.00 | 0.84 | 0.84 | 98 | 1012.6 |
| 20260507002711 | 47 | 275 | 1.7 | 1.7 | 0.00 | 0.84 | 0.84 | 98 | 1012.4 |
| 20260507002207 | 47 | 222 | 0.0 | 0.0 | 0.00 | 0.84 | 0.84 | 98 | 1012.6 |
| 20260507001704 | 47 | 239 | 0.0 | 0.0 | 0.00 | 0.84 | 0.84 | 98 | 1012.5 |
| 20260507001201 | 47 | 224 | 0.0 | 0.0 | 0.00 | 0.84 | 0.84 | 98 | 1012.3 |
| 20260507000657 | 47 | 213 | 0.0 | 0.0 | 0.00 | 0.84 | 0.84 | 97 | 1012.2 |
| 20260507000153 | 47 | 212 | 0.0 | 0.0 | 0.00 | 0.84 | 0.84 | 97 | 1012.1 |
| 20260506235650 | 48 | 214 | 0.0 | 0.0 | 0.00 | 0.84 | 0.84 | 97 | 1012.1 |
| 20260506235145 | 48 | 218 | 0.0 | 0.0 | 0.00 | 0.84 | 0.84 | 97 | 1012.1 |
| 20260506234643 | 48 | 209 | 0.0 | 0.0 | 0.00 | 0.84 | 0.84 | 96 | 1012.0 |
| 20260506234140 | 48 | 210 | 0.0 | 0.0 | 0.00 | 0.84 | 0.84 | 96 | 1011.9 |
| 20260506233637 | 47 | 202 | 0.0 | 0.0 | 0.00 | 0.84 | 0.84 | 96 | 1012.0 |
| 20260506233134 | 47 | 219 | 0.0 | 0.0 | 0.00 | 0.84 | 0.84 | 96 | 1011.9 |
| 20260506232630 | 48 | 216 | 0.0 | 0.0 | 0.00 | 0.84 | 0.84 | 96 | 1011.9 |
| 20260506232125 | 48 | 207 | 0.0 | 0.0 | 0.00 | 0.84 | 0.84 | 96 | 1011.6 |
| 20260506231623 | 48 | 191 | 0.0 | 0.0 | 0.00 | 0.84 | 0.84 | 96 | 1011.7 |
| 20260506231121 | 48 | 200 | 0.0 | 0.0 | 0.00 | 0.84 | 0.84 | 96 | 1011.7 |
| 20260506230618 | 48 | 215 | 0.0 | 0.0 | 0.00 | 0.84 | 0.84 | 95 | 1011.9 |
| 20260506230115 | 48 | 206 | 0.0 | 0.0 | 0.00 | 0.84 | 0.84 | 96 | 1011.9 |
| 20260506225611 | 48 | 220 | 0.0 | 0.0 | 0.00 | 0.84 | 0.84 | 96 | 1011.7 |
| 20260506225108 | 47 | 220 | 0.0 | 0.0 | 0.00 | 0.84 | 0.84 | 97 | 1011.8 |
| 20260506224605 | 48 | 216 | 0.0 | 0.0 | 0.00 | 0.84 | 0.84 | 97 | 1011.7 |
| 20260506224101 | 48 | 220 | 0.0 | 0.0 | 0.00 | 0.84 | 0.84 | 97 | 1011.6 |
| 20260506223557 | 47 | 220 | 0.0 | 0.0 | 0.00 | 0.84 | 0.84 | 98 | 1011.9 |
| 20260506223053 | 47 | 218 | 0.0 | 0.0 | 0.00 | 0.84 | 0.84 | 98 | 1011.5 |
| 20260506222550 | 47 | 222 | 0.0 | 0.0 | 0.00 | 0.84 | 0.84 | 98 | 1011.6 |
| 20260506222047 | 47 | 228 | 0.0 | 0.0 | 0.00 | 0.84 | 0.84 | 98 | 1011.6 |
| 20260506221544 | 47 | 228 | 0.0 | 0.0 | 0.00 | 0.84 | 0.84 | 99 | 1011.5 |
| 20260506221042 | 47 | 226 | 0.0 | 0.0 | 0.00 | 0.84 | 0.84 | 99 | 1011.5 |
| 20260506220538 | 47 | 235 | 0.0 | 0.0 | 0.00 | 0.84 | 0.84 | 99 | 1011.5 |
| 20260506220034 | 47 | 228 | 0.0 | 0.0 | 0.00 | 0.84 | 0.84 | 99 | 1011.3 |
| 20260506215531 | 47 | 225 | 0.0 | 0.0 | 0.00 | 0.84 | 0.84 | 99 | 1011.3 |
| 20260506215026 | 47 | 227 | 0.0 | 0.0 | 0.00 | 0.84 | 0.84 | 99 | 1011.4 |
| 20260506214524 | 47 | 228 | 0.0 | 0.0 | 0.05 | 0.84 | 0.84 | 99 | 1011.4 |
| 20260506214021 | 47 | 222 | 0.0 | 0.0 | 0.05 | 0.84 | 0.84 | 99 | 1011.3 |
| 20260506213519 | 47 | 247 | 0.0 | 0.0 | 0.00 | 0.83 | 0.83 | 99 | 1011.4 |
| 20260506213016 | 46 | 333 | 0.0 | 0.0 | 0.00 | 0.83 | 0.83 | 99 | 1011.5 |
| 20260506212512 | 46 | 259 | 0.0 | 0.0 | 0.07 | 0.83 | 0.83 | 98 | 1011.6 |
| 20260506212007 | 47 | 269 | 0.0 | 0.0 | 0.07 | 0.83 | 0.83 | 98 | 1011.6 |
| 20260506211503 | 47 | 243 | 0.0 | 0.0 | 0.00 | 0.82 | 0.82 | 98 | 1011.4 |
| 20260506211001 | 47 | 247 | 0.0 | 0.0 | 0.00 | 0.82 | 0.82 | 98 | 1011.4 |
| 20260506210457 | 47 | 242 | 0.0 | 0.0 | 0.00 | 0.82 | 0.82 | 98 | 1011.3 |
| 20260506205954 | 47 | 226 | 0.0 | 0.0 | 0.00 | 0.82 | 0.82 | 97 | 1011.2 |
| 20260506205450 | 46 | 266 | 0.0 | 0.0 | 0.00 | 0.82 | 0.82 | 97 | 1011.5 |
| 20260506204946 | 47 | 301 | 0.0 | 0.0 | 0.00 | 0.82 | 0.82 | 97 | 1011.2 |
| 20260506204444 | 48 | 275 | 0.0 | 0.0 | 0.00 | 0.82 | 0.82 | 96 | 1011.3 |
| 20260506203941 | 47 | 310 | 4.3 | 5.2 | 0.00 | 0.82 | 0.82 | 95 | 1011.3 |
| 20260506203438 | 48 | 264 | 2.6 | 2.6 | 0.00 | 0.82 | 0.82 | 94 | 1011.3 |
| 20260506202935 | 47 | 298 | 3.5 | 4.3 | 0.00 | 0.82 | 0.82 | 93 | 1011.2 |
| 20260506202432 | 48 | 234 | 1.7 | 2.6 | 0.00 | 0.82 | 0.82 | 94 | 1011.1 |
| 20260506201929 | 48 | 264 | 2.6 | 2.6 | 0.00 | 0.82 | 0.82 | 94 | 1011.2 |
| 20260506201426 | 47 | 302 | 3.5 | 4.3 | 0.00 | 0.82 | 0.82 | 93 | 1011.0 |
| 20260506200923 | 48 | 261 | 2.6 | 2.6 | 0.00 | 0.82 | 0.82 | 92 | 1011.3 |
| 20260506200419 | 48 | 235 | 1.7 | 1.7 | 0.00 | 0.82 | 0.82 | 91 | 1011.1 |
| 20260506195916 | 49 | 1 | 7.0 | 8.7 | 0.00 | 0.82 | 0.82 | 91 | 1011.0 |
| 20260506195413 | 48 | 217 | 0.9 | 2.6 | 0.00 | 0.82 | 0.82 | 90 | 1011.0 |
| 20260506194909 | 48 | 354 | 3.5 | 5.2 | 0.00 | 0.82 | 0.82 | 90 | 1010.7 |
| 20260506194406 | 48 | 309 | 2.6 | 4.3 | 0.00 | 0.82 | 0.82 | 90 | 1010.8 |
| 20260506193903 | 49 | 338 | 6.1 | 6.1 | 0.00 | 0.82 | 0.82 | 90 | 1010.9 |
| 20260506193400 | 48 | 328 | 4.3 | 5.2 | 0.00 | 0.82 | 0.82 | 90 | 1010.7 |
| 20260506192856 | 48 | 258 | 4.3 | 6.1 | 0.00 | 0.82 | 0.82 | 90 | 1010.8 |
| 20260506192354 | 48 | 282 | 5.2 | 6.1 | 0.00 | 0.82 | 0.82 | 91 | 1010.8 |
| 20260506191851 | 48 | 315 | 3.5 | 4.3 | 0.00 | 0.82 | 0.82 | 91 | 1010.9 |
| 20260506191347 | 48 | 329 | 5.2 | 6.1 | 0.00 | 0.82 | 0.82 | 91 | 1010.6 |
| 20260506190844 | 48 | 236 | 1.7 | 4.3 | 0.00 | 0.82 | 0.82 | 90 | 1010.5 |
| 20260506190340 | 49 | 333 | 4.3 | 4.3 | 0.00 | 0.82 | 0.82 | 90 | 1010.7 |
| 20260506185837 | 48 | 306 | 3.5 | 4.3 | 0.00 | 0.82 | 0.82 | 92 | 1010.4 |
| 20260506185334 | 48 | 230 | 1.7 | 2.6 | 0.00 | 0.82 | 0.82 | 92 | 1010.6 |
| 20260506184831 | 48 | 322 | 6.1 | 7.0 | 0.00 | 0.82 | 0.82 | 92 | 1010.8 |
| 20260506184328 | 48 | 317 | 5.2 | 7.0 | 0.00 | 0.82 | 0.82 | 93 | 1010.6 |
| 20260506183826 | 48 | 334 | 5.2 | 7.8 | 0.00 | 0.82 | 0.82 | 93 | 1010.5 |
| 20260506183321 | 48 | 328 | 7.0 | 8.7 | 0.00 | 0.82 | 0.82 | 92 | 1010.5 |
| 20260506182819 | 47 | 273 | 3.5 | 5.2 | 0.00 | 0.82 | 0.82 | 92 | 1010.4 |
| 20260506182315 | 47 | 344 | 7.0 | 8.7 | 0.00 | 0.82 | 0.82 | 93 | 1010.3 |
| 20260506181813 | 47 | 354 | 6.1 | 6.1 | 0.00 | 0.82 | 0.82 | 93 | 1010.6 |
| 20260506181311 | 47 | 340 | 5.2 | 6.1 | 0.00 | 0.82 | 0.82 | 93 | 1010.5 |
| 20260506180808 | 48 | 331 | 7.0 | 7.8 | 0.00 | 0.82 | 0.82 | 93 | 1010.5 |
| 20260506180304 | 48 | 267 | 2.6 | 4.3 | 0.00 | 0.82 | 0.82 | 93 | 1010.7 |
| 20260506175800 | 47 | 351 | 10.4 | 13.9 | 0.00 | 0.82 | 0.82 | 93 | 1010.3 |
| 20260506175257 | 47 | 289 | 4.3 | 6.1 | 0.00 | 0.82 | 0.82 | 93 | 1010.3 |
| 20260506174754 | 47 | 275 | 3.5 | 5.2 | 0.00 | 0.82 | 0.82 | 93 | 1010.3 |
| 20260506174252 | 47 | 313 | 4.3 | 5.2 | 0.00 | 0.82 | 0.82 | 94 | 1010.2 |
| 20260506173749 | 47 | 333 | 7.0 | 11.3 | 0.00 | 0.82 | 0.82 | 95 | 1010.0 |
| 20260506173246 | 47 | 332 | 7.0 | 7.8 | 0.00 | 0.82 | 0.82 | 96 | 1009.7 |
| 20260506172743 | 47 | 337 | 6.1 | 9.6 | 0.00 | 0.82 | 0.82 | 97 | 1010.0 |
| 20260506172239 | 47 | 313 | 4.3 | 5.2 | 0.00 | 0.82 | 0.82 | 97 | 1010.1 |
| 20260506171737 | 47 | 315 | 5.2 | 7.0 | 0.00 | 0.82 | 0.82 | 97 | 1009.9 |
| 20260506171234 | 46 | 247 | 4.3 | 5.2 | 0.00 | 0.82 | 0.82 | 98 | 1010.0 |
| 20260506170731 | 46 | 352 | 3.5 | 5.2 | 0.00 | 0.82 | 0.82 | 98 | 1009.9 |
| 20260506170228 | 47 | 295 | 5.2 | 7.0 | 0.00 | 0.82 | 0.82 | 99 | 1009.7 |
| 20260506165726 | 46 | 257 | 4.3 | 6.1 | 0.00 | 0.82 | 0.82 | 99 | 1009.7 |
| 20260506165223 | 47 | 255 | 2.6 | 2.6 | 0.00 | 0.82 | 0.82 | 99 | 1009.6 |
| 20260506164720 | 46 | 275 | 2.6 | 2.6 | 0.00 | 0.82 | 0.82 | 99 | 1009.5 |
| 20260506164217 | 47 | 296 | 2.6 | 2.6 | 0.00 | 0.82 | 0.82 | 99 | 1009.9 |
| 20260506163714 | 47 | 262 | 3.5 | 4.3 | 0.00 | 0.82 | 0.82 | 99 | 1009.6 |
| 20260506163209 | 46 | 320 | 4.3 | 6.1 | 0.00 | 0.82 | 0.82 | 99 | 1009.9 |
| 20260506162705 | 47 | 29 | 1.7 | 2.6 | 0.00 | 0.82 | 0.82 | 99 | 1009.5 |
| 20260506162203 | 47 | 236 | 2.6 | 4.3 | 0.00 | 0.82 | 0.82 | 99 | 1009.5 |
| 20260506161700 | 47 | 247 | 0.0 | 0.0 | 0.00 | 0.82 | 0.82 | 99 | 1009.4 |
| 20260506161156 | 47 | 253 | 2.6 | 2.6 | 0.00 | 0.82 | 0.82 | 99 | 1009.3 |
| 20260506160654 | 46 | 244 | 1.7 | 1.7 | 0.00 | 0.82 | 0.82 | 99 | 1009.1 |
| 20260506160151 | 47 | 284 | 7.0 | 8.7 | 0.05 | 0.82 | 0.82 | 99 | 1009.4 |
| 20260506155649 | 47 | 263 | 2.6 | 5.2 | 0.05 | 0.82 | 0.82 | 99 | 1009.6 |
| 20260506155146 | 46 | 284 | 3.5 | 4.3 | 0.05 | 0.82 | 0.82 | 99 | 1009.4 |
| 20260506153248 | 45 | 305 | 2.6 | 5.2 | 0.12 | 0.81 | 0.81 | 99 | 1009.9 |
| 20260506152745 | 45 | 314 | 4.3 | 7.8 | 0.12 | 0.80 | 0.80 | 99 | 1009.6 |
| 20260506152242 | 45 | 271 | 2.6 | 4.3 | 0.14 | 0.79 | 0.79 | 99 | 1009.9 |
| 20260506151741 | 44 | 254 | 4.3 | 5.2 | 0.07 | 0.78 | 0.78 | 99 | 1009.6 |
| 20260506151237 | 44 | 332 | 4.3 | 7.0 | 0.05 | 0.77 | 0.77 | 99 | 1009.7 |
| 20260506150734 | 44 | 281 | 3.5 | 5.2 | 0.05 | 0.77 | 0.77 | 99 | 1009.9 |
| 20260506150231 | 44 | 267 | 3.5 | 4.3 | 0.07 | 0.76 | 0.76 | 99 | 1009.6 |
| 20260506145728 | 44 | 262 | 1.7 | 1.7 | 0.19 | 0.76 | 0.76 | 99 | 1009.6 |
| 20260506145224 | 44 | 315 | 4.3 | 6.1 | 0.07 | 0.74 | 0.74 | 99 | 1009.6 |
| 20260506144722 | 44 | 260 | 3.5 | 4.3 | 0.00 | 0.73 | 0.73 | 99 | 1009.2 |
| 20260506144219 | 44 | 48 | 4.3 | 7.0 | 0.05 | 0.73 | 0.73 | 99 | 1009.5 |
| 20260506143716 | 44 | 339 | 3.5 | 4.3 | 0.05 | 0.73 | 0.73 | 99 | 1009.2 |
| 20260506143214 | 44 | 247 | 1.7 | 1.7 | 0.00 | 0.72 | 0.72 | 99 | 1009.0 |
| 20260506142713 | 44 | 267 | 1.7 | 1.7 | 0.00 | 0.72 | 0.72 | 99 | 1009.1 |
| 20260506142210 | 44 | 225 | 0.0 | 0.9 | 0.00 | 0.72 | 0.72 | 99 | 1008.9 |
| 20260506141708 | 45 | 241 | 1.7 | 2.6 | 0.07 | 0.72 | 0.72 | 99 | 1009.0 |
| 20260506141206 | 45 | 230 | 0.9 | 1.7 | 0.12 | 0.72 | 0.72 | 99 | 1008.5 |
| 20260506140703 | 44 | 223 | 0.0 | 0.0 | 0.12 | 0.71 | 0.71 | 99 | 1008.7 |
| 20260506140200 | 44 | 235 | 0.0 | 0.0 | 0.12 | 0.70 | 0.70 | 99 | 1008.7 |
| 20260506135657 | 44 | 225 | 0.9 | 0.9 | 0.12 | 0.69 | 0.69 | 99 | 1008.9 |
| 20260506135153 | 44 | 220 | 0.0 | 0.0 | 0.07 | 0.68 | 0.68 | 99 | 1008.7 |
| 20260506134650 | 44 | 249 | 0.9 | 0.9 | 0.05 | 0.67 | 0.67 | 99 | 1008.9 |
| 20260506134146 | 44 | 223 | 0.0 | 0.9 | 0.12 | 0.67 | 0.67 | 99 | 1008.8 |
| 20260506133643 | 45 | 205 | 0.9 | 0.9 | 0.14 | 0.66 | 0.66 | 99 | 1008.7 |
| 20260506133140 | 45 | 229 | 0.0 | 0.0 | 0.12 | 0.65 | 0.65 | 99 | 1008.9 |
| 20260506132637 | 45 | 259 | 2.6 | 2.6 | 0.05 | 0.64 | 0.64 | 99 | 1008.8 |
| 20260506132134 | 45 | 241 | 0.0 | 0.0 | 0.07 | 0.63 | 0.63 | 99 | 1008.9 |
| 20260506131632 | 45 | 225 | 0.0 | 0.0 | 0.07 | 0.63 | 0.63 | 99 | 1008.9 |
| 20260506131128 | 45 | 227 | 0.0 | 0.0 | 0.00 | 0.62 | 0.62 | 99 | 1008.6 |
| 20260506130625 | 45 | 240 | 1.7 | 1.7 | 0.05 | 0.62 | 0.62 | 99 | 1008.5 |
| 20260506130122 | 45 | 228 | 0.9 | 0.9 | 0.05 | 0.62 | 0.62 | 99 | 1008.5 |
| 20260506125620 | 45 | 222 | 0.0 | 0.0 | 0.07 | 0.61 | 0.61 | 99 | 1008.4 |
| 20260506125118 | 45 | 232 | 0.0 | 0.9 | 0.07 | 0.61 | 0.61 | 99 | 1008.8 |
| 20260506124615 | 45 | 222 | 0.0 | 0.0 | 0.05 | 0.60 | 0.60 | 99 | 1008.5 |
| 20260506124113 | 45 | 237 | 0.9 | 1.7 | 0.12 | 0.60 | 0.60 | 99 | 1008.7 |
| 20260506123610 | 45 | 298 | 2.6 | 2.6 | 0.12 | 0.59 | 0.59 | 99 | 1009.0 |
| 20260506123109 | 45 | 236 | 0.9 | 0.9 | 0.12 | 0.58 | 0.58 | 99 | 1008.8 |
| 20260506122605 | 45 | 215 | 0.0 | 0.9 | 0.12 | 0.57 | 0.57 | 99 | 1008.9 |
| 20260506122103 | 45 | 249 | 1.7 | 1.7 | 0.12 | 0.56 | 0.56 | 99 | 1009.0 |
| 20260506121601 | 46 | 264 | 0.9 | 1.7 | 0.12 | 0.55 | 0.55 | 99 | 1008.7 |
| 20260506121056 | 46 | 226 | 0.0 | 0.0 | 0.12 | 0.55 | 0.55 | 99 | 1009.0 |
| 20260506120555 | 46 | 233 | 0.9 | 1.7 | 0.12 | 0.54 | 0.54 | 99 | 1008.7 |
| 20260506120051 | 46 | 299 | 1.7 | 1.7 | 0.14 | 0.53 | 0.53 | 99 | 1008.8 |
| 20260506115550 | 46 | 249 | 0.9 | 0.9 | 0.12 | 0.52 | 0.52 | 99 | 1008.8 |
| 20260506115048 | 46 | 247 | 0.9 | 0.9 | 0.05 | 0.51 | 0.51 | 99 | 1008.6 |
| 20260506114545 | 47 | 336 | 4.3 | 5.2 | 0.12 | 0.50 | 0.50 | 99 | 1008.6 |
| 20260506114043 | 47 | 228 | 0.0 | 0.9 | 0.19 | 0.50 | 0.50 | 99 | 1008.5 |
| 20260506113541 | 47 | 318 | 4.3 | 5.2 | 0.17 | 0.49 | 0.49 | 99 | 1008.0 |
| 20260506113038 | 47 | 250 | 1.7 | 1.7 | 0.17 | 0.47 | 0.47 | 99 | 1008.0 |
| 20260506112534 | 47 | 229 | 0.0 | 0.0 | 0.24 | 0.46 | 0.46 | 99 | 1007.8 |
| 20260506112032 | 47 | 9 | 4.3 | 6.1 | 0.19 | 0.44 | 0.44 | 99 | 1008.1 |
| 20260506111530 | 48 | 237 | 0.0 | 0.0 | 0.19 | 0.42 | 0.42 | 99 | 1008.0 |